Time,TemperatureF,DewpointF,PressureIn,WindDirection,WindDirectionDegrees,WindSpeedMPH,WindSpeedGustMPH,Humidity,HourlyPrecipIn,Conditions,Clouds,dailyrainin,SoftwareType,DateUTC
2013-06-23 00:00:00,65.5,65.1,30.08,North,0,6.0,18.0,99,0.11,,,1.43,meteohub,2013-06-23 05:00:00,
2013-06-23 00:05:00,65.5,65.1,30.08,North,0,6.0,15.0,99,0.13,,,0.00,meteohub,2013-06-23 05:05:00,
2013-06-23 00:10:00,65.5,65.1,30.10,North,0,6.0,6.0,99,0.13,,,0.00,meteohub,2013-06-23 05:10:00,
2013-06-23 00:15:00,65.5,64.9,30.06,NE,45,14.0,14.0,98,0.13,,,0.00,meteohub,2013-06-23 05:15:00,
2013-06-23 00:20:00,65.5,64.9,30.07,NE,45,14.0,14.0,98,0.13,,,0.05,meteohub,2013-06-23 05:20:00,
2013-06-23 00:26:00,65.5,64.9,30.07,NE,45,14.0,14.0,98,0.13,,,0.05,meteohub,2013-06-23 05:26:00,
2013-06-23 00:48:00,64.6,64.0,30.07,West,270,2.0,-999.0,98,0.08,,,0.05,meteohub,2013-06-23 05:48:00,
2013-06-23 00:53:00,64.6,64.0,30.06,East,90,1.0,-999.0,98,0.07,,,0.05,meteohub,2013-06-23 05:53:00,
2013-06-23 00:58:00,64.4,63.9,30.06,East,90,2.0,3.0,98,0.15,,,0.13,meteohub,2013-06-23 05:58:00,
2013-06-23 01:03:00,64.2,63.7,30.05,East,90,2.0,4.0,98,0.20,,,0.20,meteohub,2013-06-23 06:03:00,
2013-06-23 01:08:00,64.2,63.7,30.04,East,90,2.0,4.0,98,0.20,,,0.20,meteohub,2013-06-23 06:08:00,
2013-06-23 01:32:00,64.2,63.7,30.06,North,0,2.0,-999.0,98,0.11,,,0.20,meteohub,2013-06-23 06:32:00,
2013-06-23 01:37:00,64.4,63.9,30.06,South,180,2.0,4.0,98,0.11,,,0.20,meteohub,2013-06-23 06:37:00,
2013-06-23 01:42:00,64.4,63.9,30.05,NW,315,4.0,4.0,98,0.11,,,0.20,meteohub,2013-06-23 06:42:00,
2013-06-23 01:47:00,64.2,63.7,30.04,NE,45,3.0,4.0,98,0.11,,,0.20,meteohub,2013-06-23 06:47:00,
2013-06-23 01:52:00,64.2,63.7,30.04,North,0,4.0,4.0,98,0.09,,,0.20,meteohub,2013-06-23 06:52:00,
2013-06-23 01:57:00,64.0,63.1,30.03,North,0,5.0,5.0,97,0.01,,,0.20,meteohub,2013-06-23 06:57:00,
2013-06-23 02:02:00,64.0,63.1,30.03,West,270,3.0,5.0,97,0.00,,,0.20,meteohub,2013-06-23 07:02:00,
2013-06-23 02:07:00,64.0,63.1,30.02,West,270,3.0,5.0,97,0.00,,,0.20,meteohub,2013-06-23 07:07:00,
2013-06-23 02:12:00,63.9,63.3,30.01,East,90,1.0,5.0,98,0.00,,,0.20,meteohub,2013-06-23 07:12:00,
2013-06-23 02:17:00,63.7,63.1,30.01,SE,135,4.0,4.0,98,0.00,,,0.20,meteohub,2013-06-23 07:17:00,
2013-06-23 02:22:00,63.5,63.0,30.00,East,90,2.0,4.0,98,0.00,,,0.20,meteohub,2013-06-23 07:22:00,
2013-06-23 02:27:00,63.3,62.8,29.99,SE,135,2.0,4.0,98,0.00,,,0.20,meteohub,2013-06-23 07:27:00,
2013-06-23 02:32:00,63.3,62.8,29.99,SW,225,4.0,4.0,98,0.00,,,0.20,meteohub,2013-06-23 07:32:00,
2013-06-23 02:37:00,63.0,62.4,29.99,South,180,4.0,4.0,98,0.00,,,0.20,meteohub,2013-06-23 07:37:00,
2013-06-23 02:42:00,63.0,62.6,29.98,South,180,4.0,4.0,99,0.00,,,0.20,meteohub,2013-06-23 07:42:00,
2013-06-23 02:47:00,63.0,62.6,29.97,ESE,113,4.0,4.0,99,0.00,,,0.20,meteohub,2013-06-23 07:47:00,
2013-06-23 02:52:00,63.0,62.6,29.98,SE,135,3.0,4.0,99,0.00,,,0.20,meteohub,2013-06-23 07:52:00,
2013-06-23 02:57:00,62.8,62.4,29.98,SW,225,2.0,4.0,99,0.00,,,0.20,meteohub,2013-06-23 07:57:00,
2013-06-23 03:02:00,62.8,62.4,29.98,South,180,3.0,4.0,99,0.00,,,0.20,meteohub,2013-06-23 08:02:00,
2013-06-23 03:07:00,62.8,62.4,29.98,South,180,3.0,4.0,99,0.00,,,0.20,meteohub,2013-06-23 08:07:00,
2013-06-23 03:12:00,63.0,62.6,29.97,East,90,2.0,3.0,99,0.00,,,0.20,meteohub,2013-06-23 08:12:00,
2013-06-23 03:17:00,62.8,62.4,29.98,South,180,4.0,4.0,99,0.00,,,0.20,meteohub,2013-06-23 08:17:00,
2013-06-23 03:22:00,62.8,62.4,29.98,West,270,4.0,6.0,99,0.00,,,0.20,meteohub,2013-06-23 08:22:00,
2013-06-23 03:27:00,62.8,62.4,29.99,West,270,8.0,8.0,99,0.00,,,0.20,meteohub,2013-06-23 08:27:00,
2013-06-23 03:32:00,62.8,62.4,30.01,West,270,6.0,8.0,99,0.00,,,0.20,meteohub,2013-06-23 08:32:00,
2013-06-23 03:37:00,62.8,62.4,30.01,West,270,9.0,9.0,99,0.00,,,0.20,meteohub,2013-06-23 08:37:00,
2013-06-23 03:42:00,62.6,62.2,30.01,West,270,8.0,9.0,99,0.01,,,0.21,meteohub,2013-06-23 08:42:00,
2013-06-23 03:47:00,62.6,62.2,30.01,West,270,7.0,9.0,99,0.01,,,0.21,meteohub,2013-06-23 08:47:00,
2013-06-23 03:52:00,62.8,62.4,30.01,WSW,248,8.0,9.0,99,0.01,,,0.21,meteohub,2013-06-23 08:52:00,
2013-06-23 03:57:00,62.8,62.4,30.02,SW,225,8.0,10.0,99,0.01,,,0.21,meteohub,2013-06-23 08:57:00,
2013-06-23 04:02:00,62.8,62.4,30.01,SW,225,6.0,10.0,99,0.01,,,0.21,meteohub,2013-06-23 09:02:00,
2013-06-23 04:07:00,62.8,62.4,30.01,SW,225,6.0,10.0,99,0.01,,,0.21,meteohub,2013-06-23 09:07:00,
2013-06-23 04:12:00,62.6,62.2,30.01,West,270,8.0,8.0,99,0.01,,,0.21,meteohub,2013-06-23 09:12:00,
2013-06-23 04:17:00,62.6,62.2,30.01,North,0,7.0,8.0,99,0.01,,,0.21,meteohub,2013-06-23 09:17:00,
2013-06-23 04:22:00,62.6,62.2,30.02,SW,225,6.0,8.0,99,0.01,,,0.21,meteohub,2013-06-23 09:22:00,
2013-06-23 04:27:00,62.6,62.2,30.01,West,270,7.0,8.0,99,0.01,,,0.21,meteohub,2013-06-23 09:27:00,
2013-06-23 04:32:00,62.6,62.2,30.01,WSW,248,10.0,10.0,99,0.01,,,0.21,meteohub,2013-06-23 09:32:00,
2013-06-23 04:37:00,62.6,62.2,30.01,SW,225,6.0,11.0,99,0.00,,,0.21,meteohub,2013-06-23 09:37:00,
2013-06-23 04:42:00,62.6,62.2,30.01,NW,315,8.0,11.0,99,0.00,,,0.21,meteohub,2013-06-23 09:42:00,
2013-06-23 04:47:00,62.6,62.2,30.01,West,270,4.0,10.0,99,0.00,,,0.21,meteohub,2013-06-23 09:47:00,
2013-06-23 04:52:00,62.6,62.2,30.01,West,270,6.0,8.0,99,0.00,,,0.21,meteohub,2013-06-23 09:52:00,
2013-06-23 04:57:00,62.8,62.4,30.01,West,270,4.0,8.0,99,0.00,,,0.21,meteohub,2013-06-23 09:57:00,
2013-06-23 05:02:00,62.8,62.4,30.00,NW,315,3.0,8.0,99,0.00,,,0.21,meteohub,2013-06-23 10:02:00,
2013-06-23 05:07:00,62.8,62.4,29.99,NW,315,3.0,8.0,99,0.00,,,0.21,meteohub,2013-06-23 10:07:00,
2013-06-23 05:12:00,62.6,62.2,29.99,West,270,4.0,8.0,99,0.00,,,0.21,meteohub,2013-06-23 10:12:00,
2013-06-23 05:17:00,62.4,62.1,29.98,West,270,4.0,4.0,99,0.00,,,0.21,meteohub,2013-06-23 10:17:00,
2013-06-23 05:22:00,62.2,61.9,29.98,South,180,6.0,6.0,99,0.00,,,0.21,meteohub,2013-06-23 10:22:00,
2013-06-23 05:27:00,62.2,61.9,29.98,SW,225,3.0,6.0,99,0.00,,,0.21,meteohub,2013-06-23 10:27:00,
2013-06-23 05:32:00,62.1,61.7,29.98,SW,225,4.0,6.0,99,0.00,,,0.21,meteohub,2013-06-23 10:32:00,
2013-06-23 05:37:00,61.9,61.5,29.97,SW,225,4.0,6.0,99,0.00,,,0.21,meteohub,2013-06-23 10:37:00,
2013-06-23 05:42:00,61.9,61.5,29.96,WSW,248,4.0,4.0,99,0.00,,,0.21,meteohub,2013-06-23 10:42:00,
2013-06-23 05:47:00,61.9,61.5,29.96,SW,225,5.0,5.0,99,0.00,,,0.21,meteohub,2013-06-23 10:47:00,
2013-06-23 05:52:00,61.9,61.5,29.96,SW,225,6.0,7.0,99,0.00,,,0.21,meteohub,2013-06-23 10:52:00,
2013-06-23 05:57:00,61.9,61.5,29.95,West,270,8.0,8.0,99,0.00,,,0.21,meteohub,2013-06-23 10:57:00,
2013-06-23 06:02:00,61.9,61.5,29.95,SW,225,6.0,8.0,99,0.00,,,0.21,meteohub,2013-06-23 11:02:00,
2013-06-23 06:07:00,62.1,61.7,29.94,SW,225,6.0,8.0,99,0.00,,,0.21,meteohub,2013-06-23 11:07:00,
2013-06-23 06:12:00,62.2,61.9,29.94,SW,225,5.0,8.0,99,0.00,,,0.21,meteohub,2013-06-23 11:12:00,
2013-06-23 06:17:00,62.2,61.9,29.94,SW,225,4.0,7.0,99,0.00,,,0.21,meteohub,2013-06-23 11:17:00,
2013-06-23 06:22:00,62.4,62.1,29.93,SW,225,4.0,7.0,99,0.00,,,0.21,meteohub,2013-06-23 11:22:00,
2013-06-23 06:27:00,62.6,62.2,29.93,SW,225,5.0,7.0,99,0.00,,,0.21,meteohub,2013-06-23 11:27:00,
2013-06-23 06:32:00,63.0,62.6,29.92,South,180,5.0,8.0,99,0.00,,,0.21,meteohub,2013-06-23 11:32:00,
2013-06-23 06:37:00,63.1,62.8,29.93,SW,225,6.0,8.0,99,0.00,,,0.21,meteohub,2013-06-23 11:37:00,
2013-06-23 06:42:00,63.3,63.0,29.92,SW,225,7.0,10.0,99,0.00,,,0.21,meteohub,2013-06-23 11:42:00,
2013-06-23 06:47:00,63.7,63.3,29.93,SE,135,8.0,10.0,99,0.00,,,0.21,meteohub,2013-06-23 11:47:00,
2013-06-23 06:52:00,63.9,63.5,29.92,SW,225,8.0,9.0,99,0.00,,,0.21,meteohub,2013-06-23 11:52:00,
2013-06-23 06:57:00,64.2,63.7,29.93,SW,225,10.0,10.0,98,0.00,,,0.21,meteohub,2013-06-23 11:57:00,
2013-06-23 07:02:00,64.6,63.7,29.94,South,180,8.0,11.0,97,0.00,,,0.21,meteohub,2013-06-23 12:02:00,
2013-06-23 07:07:00,64.9,63.9,29.93,South,180,11.0,11.0,96,0.00,,,0.21,meteohub,2013-06-23 12:07:00,
2013-06-23 07:12:00,65.3,63.5,29.93,SSW,203,11.0,12.0,94,0.00,,,0.21,meteohub,2013-06-23 12:12:00,
2013-06-23 07:17:00,65.8,64.0,29.93,SW,225,8.0,12.0,94,0.00,,,0.21,meteohub,2013-06-23 12:17:00,
2013-06-23 07:22:00,66.2,64.0,29.94,South,180,7.0,12.0,93,0.00,,,0.21,meteohub,2013-06-23 12:22:00,
2013-06-23 07:27:00,66.6,64.2,29.94,SW,225,6.0,12.0,92,0.00,,,0.21,meteohub,2013-06-23 12:27:00,
2013-06-23 07:32:00,67.3,64.6,29.95,NNE,23,10.0,10.0,91,0.00,,,0.21,meteohub,2013-06-23 12:32:00,
2013-06-23 07:37:00,67.6,64.9,29.95,NE,45,12.0,12.0,91,0.00,,,0.21,meteohub,2013-06-23 12:37:00,
2013-06-23 07:42:00,68.2,65.5,29.95,South,180,9.0,12.0,91,0.00,,,0.21,meteohub,2013-06-23 12:42:00,
2013-06-23 07:47:00,68.5,65.8,29.96,SW,225,11.0,12.0,91,0.00,,,0.21,meteohub,2013-06-23 12:47:00,
2013-06-23 07:53:00,68.7,66.0,29.95,SW,225,12.0,12.0,91,0.00,,,0.21,meteohub,2013-06-23 12:53:00,
2013-06-23 07:58:00,69.1,66.0,29.95,SW,225,13.0,13.0,90,0.00,,,0.21,meteohub,2013-06-23 12:58:00,
2013-06-23 08:03:00,69.4,66.7,29.95,South,180,13.0,13.0,91,0.00,,,0.21,meteohub,2013-06-23 13:03:00,
2013-06-23 08:08:00,69.8,67.1,29.96,SW,225,11.0,16.0,91,0.00,,,0.21,meteohub,2013-06-23 13:08:00,
2013-06-23 08:13:00,70.0,66.9,29.95,South,180,11.0,16.0,90,0.00,,,0.21,meteohub,2013-06-23 13:13:00,
2013-06-23 08:18:00,70.3,67.6,29.96,SSW,203,10.0,16.0,91,0.00,,,0.21,meteohub,2013-06-23 13:18:00,
2013-06-23 08:23:00,70.5,67.1,29.96,South,180,17.0,17.0,89,0.00,,,0.21,meteohub,2013-06-23 13:23:00,
2013-06-23 08:28:00,71.1,68.4,29.96,SW,225,10.0,15.0,91,0.00,,,0.21,meteohub,2013-06-23 13:28:00,
2013-06-23 08:34:00,71.6,68.2,29.96,SW,225,13.0,17.0,89,0.00,,,0.21,meteohub,2013-06-23 13:34:00,
2013-06-23 08:39:00,72.0,68.2,29.97,South,180,11.0,17.0,88,0.00,,,0.21,meteohub,2013-06-23 13:39:00,
2013-06-23 08:44:00,72.1,68.4,29.96,SSW,203,11.0,14.0,88,0.00,,,0.21,meteohub,2013-06-23 13:44:00,
2013-06-23 08:49:00,72.3,68.9,29.97,SW,225,11.0,17.0,89,0.00,,,0.21,meteohub,2013-06-23 13:49:00,
2013-06-23 08:54:00,72.5,68.4,29.97,WSW,248,14.0,17.0,87,0.00,,,0.21,meteohub,2013-06-23 13:54:00,
2013-06-23 08:59:00,72.9,69.4,29.97,South,180,9.0,17.0,89,0.00,,,0.21,meteohub,2013-06-23 13:59:00,
2013-06-23 09:05:00,73.0,68.5,29.97,South,180,16.0,16.0,86,0.00,,,0.21,meteohub,2013-06-23 14:05:00,
2013-06-23 09:10:00,73.4,68.9,29.97,South,180,11.0,16.0,86,0.00,,,0.21,meteohub,2013-06-23 14:10:00,
2013-06-23 09:15:00,73.9,69.1,29.97,South,180,11.0,16.0,85,0.00,,,0.21,meteohub,2013-06-23 14:15:00,
2013-06-23 09:20:00,74.1,68.9,29.97,SW,225,14.0,16.0,84,0.00,,,0.21,meteohub,2013-06-23 14:20:00,
2013-06-23 09:25:00,74.3,69.8,29.97,SSW,203,8.0,13.0,86,0.00,,,0.21,meteohub,2013-06-23 14:25:00,
2013-06-23 09:30:00,74.7,69.4,29.98,SW,225,11.0,15.0,84,0.00,,,0.21,meteohub,2013-06-23 14:30:00,
2013-06-23 09:35:00,75.2,70.0,29.97,South,180,11.0,14.0,84,0.00,,,0.21,meteohub,2013-06-23 14:35:00,
2013-06-23 09:40:00,75.4,69.8,29.97,SSW,203,15.0,17.0,83,0.00,,,0.21,meteohub,2013-06-23 14:40:00,
2013-06-23 09:45:00,75.6,70.0,29.97,South,180,11.0,17.0,83,0.00,,,0.21,meteohub,2013-06-23 14:45:00,
2013-06-23 09:50:00,76.1,70.2,29.97,South,180,12.0,17.0,82,0.00,,,0.21,meteohub,2013-06-23 14:50:00,
2013-06-23 09:55:00,76.5,70.2,29.97,SW,225,12.0,15.0,81,0.00,,,0.21,meteohub,2013-06-23 14:55:00,
2013-06-23 10:01:00,76.5,70.5,29.97,SW,225,11.0,15.0,82,0.00,,,0.21,meteohub,2013-06-23 15:01:00,
2013-06-23 10:06:00,77.4,70.7,29.96,SW,225,14.0,14.0,80,0.00,,,0.21,meteohub,2013-06-23 15:06:00,
2013-06-23 10:11:00,77.2,70.2,29.96,South,180,15.0,15.0,79,0.00,,,0.21,meteohub,2013-06-23 15:11:00,
2013-06-23 10:16:00,77.4,70.0,29.96,SW,225,10.0,15.0,78,0.00,,,0.21,meteohub,2013-06-23 15:16:00,
2013-06-23 10:21:00,77.7,70.0,29.97,SW,225,15.0,16.0,77,0.00,,,0.21,meteohub,2013-06-23 15:21:00,
2013-06-23 10:27:00,77.5,69.8,29.96,SW,225,14.0,16.0,77,0.00,,,0.21,meteohub,2013-06-23 15:27:00,
2013-06-23 10:32:00,77.7,70.0,29.97,SW,225,15.0,15.0,77,0.00,,,0.21,meteohub,2013-06-23 15:32:00,
2013-06-23 10:37:00,77.7,69.6,29.96,SW,225,15.0,18.0,76,0.00,,,0.21,meteohub,2013-06-23 15:37:00,
2013-06-23 10:42:00,77.7,70.0,29.96,South,180,13.0,18.0,77,0.00,,,0.21,meteohub,2013-06-23 15:42:00,
2013-06-23 10:47:00,77.9,70.2,29.97,SW,225,11.0,18.0,77,0.00,,,0.21,meteohub,2013-06-23 15:47:00,
2013-06-23 10:52:00,78.3,70.9,29.96,WSW,248,12.0,17.0,78,0.00,,,0.21,meteohub,2013-06-23 15:52:00,
2013-06-23 10:57:00,78.4,70.2,29.96,South,180,15.0,17.0,76,0.00,,,0.21,meteohub,2013-06-23 15:57:00,
2013-06-23 11:02:00,78.8,71.1,29.96,SW,225,15.0,15.0,77,0.00,,,0.21,meteohub,2013-06-23 16:02:00,
2013-06-23 11:07:00,78.8,70.5,29.96,SW,225,15.0,17.0,76,0.00,,,0.21,meteohub,2013-06-23 16:07:00,
2013-06-23 11:13:00,78.6,70.3,29.96,SW,225,13.0,17.0,76,0.00,,,0.21,meteohub,2013-06-23 16:13:00,
2013-06-23 11:18:00,79.0,71.1,29.96,South,180,15.0,17.0,77,0.00,,,0.21,meteohub,2013-06-23 16:18:00,
2013-06-23 11:23:00,79.5,71.6,29.96,SSW,203,15.0,17.0,77,0.00,,,0.21,meteohub,2013-06-23 16:23:00,
2013-06-23 11:28:00,79.3,71.1,29.96,SSW,203,15.0,16.0,76,0.00,,,0.21,meteohub,2013-06-23 16:28:00,
2013-06-23 11:33:00,79.0,71.1,29.96,SSW,203,13.0,15.0,77,0.00,,,0.21,meteohub,2013-06-23 16:33:00,
2013-06-23 11:39:00,79.5,72.5,29.96,South,180,12.0,17.0,79,0.00,,,0.21,meteohub,2013-06-23 16:39:00,
2013-06-23 11:44:00,79.7,72.1,29.96,SW,225,14.0,17.0,78,0.00,,,0.21,meteohub,2013-06-23 16:44:00,
2013-06-23 11:49:00,79.9,71.6,29.97,SW,225,17.0,19.0,76,0.00,,,0.21,meteohub,2013-06-23 16:49:00,
2013-06-23 11:54:00,80.1,73.0,29.96,SSW,203,11.0,19.0,79,0.00,,,0.21,meteohub,2013-06-23 16:54:00,
2013-06-23 11:57:00,80.2,72.3,29.97,SW,225,15.0,17.0,77,0.00,,,0.21,meteohub,2013-06-23 16:57:00,
2013-06-23 11:58:00,80.1,71.8,29.96,SW,225,17.0,17.0,76,0.00,,,0.21,meteohub,2013-06-23 16:58:00,
2013-06-23 11:59:00,80.1,72.1,29.96,South,180,15.0,17.0,77,0.00,,,0.21,meteohub,2013-06-23 16:59:00,
2013-06-23 12:01:00,80.2,73.0,29.96,South,180,11.0,18.0,79,0.00,,,0.21,meteohub,2013-06-23 17:01:00,
2013-06-23 12:06:00,80.6,72.3,29.96,SW,225,17.0,18.0,76,0.00,,,0.21,meteohub,2013-06-23 17:06:00,
2013-06-23 12:12:00,80.6,72.0,29.96,SW,225,18.0,18.0,75,0.00,,,0.21,meteohub,2013-06-23 17:12:00,
2013-06-23 12:17:00,80.8,73.2,29.96,SW,225,14.0,18.0,78,0.00,,,0.21,meteohub,2013-06-23 17:17:00,
2013-06-23 12:22:00,81.0,72.3,29.96,West,270,17.0,18.0,75,0.00,,,0.21,meteohub,2013-06-23 17:22:00,
2013-06-23 12:27:00,81.1,72.5,29.96,SW,225,17.0,21.0,75,0.00,,,0.21,meteohub,2013-06-23 17:27:00,
2013-06-23 12:32:00,81.5,73.2,29.95,SW,225,17.0,21.0,76,0.00,,,0.21,meteohub,2013-06-23 17:32:00,
2013-06-23 12:37:00,81.9,73.2,29.95,SW,225,15.0,19.0,75,0.00,,,0.21,meteohub,2013-06-23 17:37:00,
2013-06-23 12:42:00,82.0,72.9,29.95,SW,225,17.0,20.0,74,0.00,,,0.21,meteohub,2013-06-23 17:42:00,
2013-06-23 12:47:00,82.2,72.3,29.95,SW,225,17.0,20.0,72,0.00,,,0.21,meteohub,2013-06-23 17:47:00,
2013-06-23 12:52:00,82.2,72.7,29.95,SW,225,17.0,20.0,73,0.00,,,0.21,meteohub,2013-06-23 17:52:00,
2013-06-23 12:57:00,81.9,72.3,29.94,SW,225,22.0,22.0,73,0.00,,,0.21,meteohub,2013-06-23 17:57:00,
2013-06-23 13:02:00,81.3,71.8,29.95,SW,225,19.0,22.0,73,0.00,,,0.21,meteohub,2013-06-23 18:02:00,
2013-06-23 13:07:00,80.8,72.1,29.95,SW,225,15.0,22.0,75,0.00,,,0.21,meteohub,2013-06-23 18:07:00,
2013-06-23 13:12:00,80.6,72.0,29.95,West,270,17.0,22.0,75,0.00,,,0.21,meteohub,2013-06-23 18:12:00,
2013-06-23 13:17:00,80.4,72.5,29.95,SW,225,11.0,21.0,77,0.00,,,0.21,meteohub,2013-06-23 18:17:00,
2013-06-23 13:22:00,80.4,71.4,29.96,SSW,203,17.0,21.0,74,0.00,,,0.21,meteohub,2013-06-23 18:22:00,
2013-06-23 13:27:00,79.9,72.0,29.96,NW,315,15.0,21.0,77,0.00,,,0.21,meteohub,2013-06-23 18:27:00,
2013-06-23 13:32:00,79.9,71.6,29.95,SW,225,13.0,21.0,76,0.00,,,0.21,meteohub,2013-06-23 18:32:00,
2013-06-23 13:37:00,80.1,73.0,29.94,West,270,9.0,21.0,79,0.00,,,0.21,meteohub,2013-06-23 18:37:00,
2013-06-23 13:42:00,80.2,73.0,29.94,West,270,16.0,17.0,79,0.00,,,0.21,meteohub,2013-06-23 18:42:00,
2013-06-23 13:47:00,80.8,72.5,29.93,SW,225,16.0,16.0,76,0.00,,,0.21,meteohub,2013-06-23 18:47:00,
2013-06-23 13:52:00,81.3,73.0,29.93,SW,225,15.0,16.0,76,0.00,,,0.21,meteohub,2013-06-23 18:52:00,
2013-06-23 13:57:00,81.9,72.7,29.93,West,270,15.0,21.0,74,0.00,,,0.21,meteohub,2013-06-23 18:57:00,
2013-06-23 14:02:00,82.0,72.5,29.93,West,270,17.0,21.0,73,0.00,,,0.21,meteohub,2013-06-23 19:02:00,
2013-06-23 14:07:00,81.5,72.3,29.93,SW,225,12.0,21.0,74,0.00,,,0.21,meteohub,2013-06-23 19:07:00,
2013-06-23 14:12:00,81.9,72.0,29.91,SW,225,15.0,21.0,72,0.00,,,0.21,meteohub,2013-06-23 19:12:00,
2013-06-23 14:17:00,82.0,72.9,29.91,West,270,11.0,21.0,74,0.00,,,0.21,meteohub,2013-06-23 19:17:00,
2013-06-23 14:22:00,82.6,73.4,29.91,SW,225,7.0,20.0,74,0.00,,,0.21,meteohub,2013-06-23 19:22:00,
2013-06-23 14:27:00,82.8,72.9,29.90,SW,225,9.0,17.0,72,0.00,,,0.21,meteohub,2013-06-23 19:27:00,
2013-06-23 14:32:00,82.8,73.2,29.89,SW,225,9.0,12.0,73,0.00,,,0.21,meteohub,2013-06-23 19:32:00,
2013-06-23 14:37:00,82.8,72.9,29.88,SW,225,8.0,11.0,72,0.00,,,0.21,meteohub,2013-06-23 19:37:00,
2013-06-23 14:42:00,83.1,72.7,29.87,SW,225,11.0,11.0,71,0.00,,,0.21,meteohub,2013-06-23 19:42:00,
2013-06-23 14:47:00,83.3,71.2,29.87,South,180,18.0,18.0,67,0.00,,,0.21,meteohub,2013-06-23 19:47:00,
2013-06-23 14:52:00,82.9,71.8,29.88,South,180,13.0,18.0,69,0.00,,,0.21,meteohub,2013-06-23 19:52:00,
2013-06-23 14:57:00,82.4,71.2,29.87,South,180,13.0,18.0,69,0.00,,,0.21,meteohub,2013-06-23 19:57:00,
2013-06-23 15:02:00,82.0,71.2,29.87,East,90,12.0,18.0,70,0.00,,,0.21,meteohub,2013-06-23 20:02:00,
2013-06-23 15:07:00,81.5,70.7,29.87,SW,225,15.0,17.0,70,0.00,,,0.21,meteohub,2013-06-23 20:07:00,
2013-06-23 15:12:00,81.3,71.1,29.87,South,180,11.0,15.0,71,0.00,,,0.21,meteohub,2013-06-23 20:12:00,
2013-06-23 15:18:00,81.5,71.2,29.88,South,180,13.0,16.0,71,0.00,,,0.21,meteohub,2013-06-23 20:18:00,
2013-06-23 15:23:00,82.2,72.0,29.88,SW,225,13.0,16.0,71,0.00,,,0.21,meteohub,2013-06-23 20:23:00,
2013-06-23 15:28:00,82.6,72.7,29.88,South,180,11.0,16.0,72,0.00,,,0.21,meteohub,2013-06-23 20:28:00,
2013-06-23 15:33:00,82.4,72.0,29.88,South,180,15.0,17.0,71,0.00,,,0.21,meteohub,2013-06-23 20:33:00,
2013-06-23 15:38:00,82.0,71.8,29.88,South,180,14.0,17.0,71,0.00,,,0.21,meteohub,2013-06-23 20:38:00,
2013-06-23 15:43:00,81.9,70.3,29.89,SE,135,11.0,17.0,68,0.00,,,0.21,meteohub,2013-06-23 20:43:00,
2013-06-23 15:48:00,81.7,69.3,29.89,South,180,12.0,19.0,66,0.00,,,0.21,meteohub,2013-06-23 20:48:00,
2013-06-23 15:53:00,81.3,67.1,29.89,South,180,18.0,19.0,62,0.00,,,0.21,meteohub,2013-06-23 20:53:00,
2013-06-23 15:58:00,80.8,68.0,29.90,SW,225,11.0,19.0,65,0.00,,,0.21,meteohub,2013-06-23 20:58:00,
2013-06-23 16:03:00,80.8,68.4,29.88,SW,225,9.0,18.0,66,0.00,,,0.21,meteohub,2013-06-23 21:03:00,
2013-06-23 16:08:00,80.4,68.0,29.89,South,180,11.0,18.0,66,0.00,,,0.21,meteohub,2013-06-23 21:08:00,
2013-06-23 16:13:00,80.4,68.9,29.88,South,180,10.0,15.0,68,0.00,,,0.21,meteohub,2013-06-23 21:13:00,
2013-06-23 16:19:00,80.6,69.4,29.89,SW,225,10.0,11.0,69,0.00,,,0.21,meteohub,2013-06-23 21:19:00,
2013-06-23 16:24:00,81.0,70.2,29.89,SSW,203,9.0,11.0,70,0.00,,,0.21,meteohub,2013-06-23 21:24:00,
2013-06-23 16:29:00,81.3,71.4,29.89,South,180,8.0,13.0,72,0.00,,,0.21,meteohub,2013-06-23 21:29:00,
2013-06-23 16:34:00,81.5,72.0,29.89,SW,225,10.0,13.0,73,0.00,,,0.21,meteohub,2013-06-23 21:34:00,
2013-06-23 16:39:00,81.5,71.2,29.89,SE,135,13.0,15.0,71,0.00,,,0.21,meteohub,2013-06-23 21:39:00,
2013-06-23 16:44:00,81.7,71.8,29.90,SW,225,8.0,15.0,72,0.00,,,0.21,meteohub,2013-06-23 21:44:00,
2013-06-23 16:49:00,81.7,71.4,29.90,South,180,11.0,15.0,71,0.00,,,0.21,meteohub,2013-06-23 21:49:00,
2013-06-23 16:54:00,81.3,71.4,29.90,WNW,293,11.0,13.0,72,0.00,,,0.21,meteohub,2013-06-23 21:54:00,
2013-06-23 16:59:00,81.1,71.6,29.90,South,180,11.0,13.0,73,0.00,,,0.21,meteohub,2013-06-23 21:59:00,
2013-06-23 17:04:00,81.1,71.6,29.91,West,270,11.0,13.0,73,0.00,,,0.21,meteohub,2013-06-23 22:04:00,
2013-06-23 17:09:00,81.0,71.4,29.91,SW,225,11.0,13.0,73,0.00,,,0.21,meteohub,2013-06-23 22:09:00,
2013-06-23 17:14:00,81.0,72.0,29.90,SW,225,10.0,12.0,74,0.00,,,0.21,meteohub,2013-06-23 22:14:00,
2013-06-23 17:19:00,81.0,72.3,29.90,South,180,4.0,13.0,75,0.00,,,0.21,meteohub,2013-06-23 22:19:00,
2013-06-23 17:25:00,81.3,72.7,29.90,SW,225,6.0,13.0,75,0.00,,,0.21,meteohub,2013-06-23 22:25:00,
2013-06-23 17:30:00,81.0,72.0,29.90,SE,135,12.0,13.0,74,0.00,,,0.21,meteohub,2013-06-23 22:30:00,
2013-06-23 17:35:00,80.8,72.9,29.91,South,180,8.0,11.0,77,0.00,,,0.21,meteohub,2013-06-23 22:35:00,
2013-06-23 17:40:00,80.2,72.3,29.91,SW,225,11.0,12.0,77,0.00,,,0.21,meteohub,2013-06-23 22:40:00,
2013-06-23 17:45:00,80.1,72.5,29.91,SW,225,11.0,12.0,78,0.00,,,0.21,meteohub,2013-06-23 22:45:00,
2013-06-23 17:50:00,79.7,72.7,29.92,South,180,11.0,12.0,79,0.00,,,0.21,meteohub,2013-06-23 22:50:00,
2013-06-23 17:55:00,79.5,72.9,29.92,SW,225,11.0,15.0,80,0.00,,,0.21,meteohub,2013-06-23 22:55:00,
2013-06-23 18:00:00,79.2,71.8,29.92,South,180,14.0,15.0,78,0.00,,,0.21,meteohub,2013-06-23 23:00:00,
2013-06-23 18:05:00,79.0,72.0,29.92,SW,225,12.0,15.0,79,0.00,,,0.21,meteohub,2013-06-23 23:05:00,
2013-06-23 18:10:00,79.0,71.6,29.93,SW,225,10.0,15.0,78,0.00,,,0.21,meteohub,2013-06-23 23:10:00,
2013-06-23 18:15:00,79.2,71.2,29.93,SW,225,10.0,15.0,77,0.00,,,0.21,meteohub,2013-06-23 23:15:00,
2013-06-23 18:20:00,79.2,71.2,29.93,SW,225,9.0,15.0,77,0.00,,,0.21,meteohub,2013-06-23 23:20:00,
2013-06-23 18:25:00,79.0,70.0,29.92,South,180,13.0,13.0,74,0.00,,,0.21,meteohub,2013-06-23 23:25:00,
2013-06-23 18:31:00,78.6,69.6,29.93,SW,225,12.0,15.0,74,0.00,,,0.21,meteohub,2013-06-23 23:31:00,
2013-06-23 18:36:00,78.8,69.8,29.93,SW,225,9.0,15.0,74,0.00,,,0.21,meteohub,2013-06-23 23:36:00,
2013-06-23 18:41:00,78.4,69.4,29.93,SW,225,11.0,15.0,74,0.00,,,0.21,meteohub,2013-06-23 23:41:00,
2013-06-23 18:46:00,78.1,69.1,29.94,SW,225,10.0,14.0,74,0.00,,,0.21,meteohub,2013-06-23 23:46:00,
2013-06-23 18:51:00,77.9,69.3,29.94,SW,225,12.0,13.0,75,0.00,,,0.21,meteohub,2013-06-23 23:51:00,
2013-06-23 18:56:00,77.5,69.4,29.94,WSW,248,8.0,13.0,76,0.00,,,0.21,meteohub,2013-06-23 23:56:00,
2013-06-23 19:01:00,77.4,68.4,29.94,South,180,12.0,15.0,74,0.00,,,0.21,meteohub,2013-06-24 00:01:00,
2013-06-23 19:06:00,77.2,67.8,29.94,SW,225,15.0,15.0,73,0.00,,,0.21,meteohub,2013-06-24 00:06:00,
2013-06-23 19:11:00,76.8,67.8,29.94,SW,225,10.0,15.0,74,0.00,,,0.21,meteohub,2013-06-24 00:11:00,
2013-06-23 19:16:00,76.6,68.2,29.94,SW,225,14.0,15.0,75,0.00,,,0.21,meteohub,2013-06-24 00:16:00,
2013-06-23 19:21:00,76.6,68.2,29.94,SW,225,8.0,15.0,75,0.00,,,0.21,meteohub,2013-06-24 00:21:00,
2013-06-23 19:26:00,76.6,68.9,29.94,South,180,8.0,14.0,77,0.00,,,0.21,meteohub,2013-06-24 00:26:00,
2013-06-23 19:32:00,76.3,68.2,29.94,SW,225,13.0,14.0,76,0.00,,,0.21,meteohub,2013-06-24 00:32:00,
2013-06-23 19:37:00,76.1,68.0,29.94,SW,225,13.0,13.0,76,0.00,,,0.21,meteohub,2013-06-24 00:37:00,
2013-06-23 19:42:00,75.7,68.0,29.94,SW,225,11.0,13.0,77,0.00,,,0.21,meteohub,2013-06-24 00:42:00,
2013-06-23 19:47:00,75.6,67.8,29.94,SW,225,12.0,13.0,77,0.00,,,0.21,meteohub,2013-06-24 00:47:00,
2013-06-23 19:52:00,75.4,68.0,29.94,South,180,12.0,13.0,78,0.00,,,0.21,meteohub,2013-06-24 00:52:00,
2013-06-23 19:57:00,75.2,68.2,29.94,NW,315,8.0,12.0,79,0.00,,,0.21,meteohub,2013-06-24 00:57:00,
2013-06-23 20:02:00,74.8,67.8,29.94,SW,225,8.0,12.0,79,0.00,,,0.21,meteohub,2013-06-24 01:02:00,
2013-06-23 20:07:00,74.7,68.0,29.93,SW,225,5.0,12.0,80,0.00,,,0.21,meteohub,2013-06-24 01:07:00,
2013-06-23 20:12:00,74.5,67.8,29.93,SW,225,8.0,10.0,80,0.00,,,0.21,meteohub,2013-06-24 01:12:00,
2013-06-23 20:17:00,74.3,68.0,29.94,SW,225,6.0,10.0,81,0.00,,,0.21,meteohub,2013-06-24 01:17:00,
2013-06-23 20:22:00,73.9,67.8,29.94,SW,225,9.0,10.0,81,0.00,,,0.21,meteohub,2013-06-24 01:22:00,
2013-06-23 20:27:00,73.6,67.8,29.94,SW,225,7.0,9.0,82,0.00,,,0.21,meteohub,2013-06-24 01:27:00,
2013-06-23 20:32:00,73.4,67.6,29.94,SW,225,5.0,9.0,82,0.00,,,0.21,meteohub,2013-06-24 01:32:00,
2013-06-23 20:37:00,73.2,67.8,29.94,SW,225,5.0,9.0,83,0.00,,,0.21,meteohub,2013-06-24 01:37:00,
2013-06-23 20:42:00,72.9,67.8,29.94,SW,225,4.0,8.0,84,0.00,,,0.21,meteohub,2013-06-24 01:42:00,
2013-06-23 20:47:00,72.5,67.8,29.94,SW,225,6.0,6.0,85,0.00,,,0.21,meteohub,2013-06-24 01:47:00,
2013-06-23 20:52:00,72.5,68.0,29.94,South,180,5.0,8.0,86,0.00,,,0.21,meteohub,2013-06-24 01:52:00,
2013-06-23 20:57:00,72.3,67.8,29.94,SW,225,4.0,8.0,86,0.00,,,0.21,meteohub,2013-06-24 01:57:00,
2013-06-23 21:02:00,72.0,67.8,29.94,SW,225,5.0,8.0,87,0.00,,,0.21,meteohub,2013-06-24 02:02:00,
2013-06-23 21:07:00,72.0,68.2,29.94,West,270,7.0,7.0,88,0.00,,,0.21,meteohub,2013-06-24 02:07:00,
2013-06-23 21:12:00,71.8,68.0,29.94,SW,225,5.0,7.0,88,0.00,,,0.21,meteohub,2013-06-24 02:12:00,
2013-06-23 21:17:00,71.6,68.2,29.95,SW,225,5.0,7.0,89,0.00,,,0.21,meteohub,2013-06-24 02:17:00,
2013-06-23 21:22:00,71.6,68.2,29.95,SW,225,5.0,7.0,89,0.00,,,0.21,meteohub,2013-06-24 02:22:00,
2013-06-23 21:27:00,71.2,68.2,29.95,South,180,5.0,6.0,90,0.00,,,0.21,meteohub,2013-06-24 02:27:00,
2013-06-23 21:32:00,71.2,68.5,29.95,South,180,5.0,5.0,91,0.00,,,0.21,meteohub,2013-06-24 02:32:00,
2013-06-23 21:37:00,71.2,68.5,29.95,SW,225,4.0,6.0,91,0.00,,,0.21,meteohub,2013-06-24 02:37:00,
2013-06-23 21:42:00,70.9,68.4,29.95,SW,225,4.0,6.0,92,0.00,,,0.21,meteohub,2013-06-24 02:42:00,
2013-06-23 21:47:00,70.9,68.4,29.95,SSW,203,4.0,7.0,92,0.00,,,0.21,meteohub,2013-06-24 02:47:00,
2013-06-23 21:52:00,70.7,68.2,29.96,SW,225,6.0,7.0,92,0.00,,,0.21,meteohub,2013-06-24 02:52:00,
2013-06-23 21:57:00,70.7,68.2,29.96,SW,225,4.0,7.0,92,0.00,,,0.21,meteohub,2013-06-24 02:57:00,
2013-06-23 22:02:00,70.7,68.2,29.96,SW,225,5.0,7.0,92,0.00,,,0.21,meteohub,2013-06-24 03:02:00,
2013-06-23 22:07:00,70.7,68.2,29.96,SW,225,5.0,7.0,92,0.00,,,0.21,meteohub,2013-06-24 03:07:00,
2013-06-23 22:12:00,70.3,68.2,29.96,SW,225,4.0,7.0,93,0.00,,,0.21,meteohub,2013-06-24 03:12:00,
2013-06-23 22:17:00,70.3,68.2,29.96,SW,225,6.0,6.0,93,0.00,,,0.21,meteohub,2013-06-24 03:17:00,
2013-06-23 22:22:00,70.2,68.0,29.96,West,270,5.0,6.0,93,0.00,,,0.21,meteohub,2013-06-24 03:22:00,
2013-06-23 22:27:00,70.2,68.4,29.96,NNW,338,7.0,7.0,94,0.00,,,0.21,meteohub,2013-06-24 03:27:00,
2013-06-23 22:32:00,70.2,68.4,29.96,SW,225,7.0,8.0,94,0.00,,,0.21,meteohub,2013-06-24 03:32:00,
2013-06-23 22:37:00,70.2,68.4,29.97,SW,225,6.0,8.0,94,0.00,,,0.21,meteohub,2013-06-24 03:37:00,
2013-06-23 22:42:00,70.2,68.4,29.97,SW,225,5.0,8.0,94,0.00,,,0.21,meteohub,2013-06-24 03:42:00,
2013-06-23 22:47:00,70.0,68.2,29.97,South,180,5.0,8.0,94,0.00,,,0.21,meteohub,2013-06-24 03:47:00,
2013-06-23 22:52:00,70.0,68.2,29.97,SW,225,5.0,8.0,94,0.00,,,0.21,meteohub,2013-06-24 03:52:00,
2013-06-23 22:57:00,70.0,68.2,29.98,SW,225,4.0,8.0,94,0.00,,,0.21,meteohub,2013-06-24 03:57:00,
2013-06-23 23:01:00,70.0,68.2,29.97,South,180,6.0,6.0,94,0.00,,,0.21,meteohub,2013-06-24 04:01:00,
2013-06-23 23:02:00,70.0,68.2,29.97,South,180,6.0,6.0,94,0.00,,,0.21,meteohub,2013-06-24 04:02:00,
2013-06-23 23:04:00,70.0,68.2,29.98,South,180,6.0,6.0,94,0.00,,,0.21,meteohub,2013-06-24 04:04:00,
2013-06-23 23:09:00,69.8,68.4,29.97,SW,225,6.0,6.0,95,0.00,,,0.21,meteohub,2013-06-24 04:09:00,
2013-06-23 23:15:00,69.8,68.4,29.98,South,180,4.0,7.0,95,0.00,,,0.21,meteohub,2013-06-24 04:15:00,
2013-06-23 23:20:00,69.8,68.4,29.97,South,180,6.0,7.0,95,0.00,,,0.21,meteohub,2013-06-24 04:20:00,
2013-06-23 23:25:00,69.8,68.4,29.97,WSW,248,6.0,8.0,95,0.00,,,0.21,meteohub,2013-06-24 04:25:00,
2013-06-23 23:30:00,69.8,68.4,29.97,SW,225,7.0,8.0,95,0.00,,,0.21,meteohub,2013-06-24 04:30:00,
2013-06-23 23:35:00,69.6,68.2,29.98,South,180,4.0,8.0,95,0.00,,,0.21,meteohub,2013-06-24 04:35:00,
2013-06-23 23:40:00,69.6,68.2,29.98,West,270,7.0,8.0,95,0.00,,,0.21,meteohub,2013-06-24 04:40:00,
2013-06-23 23:45:00,69.8,68.4,29.97,SW,225,6.0,8.0,95,0.00,,,0.21,meteohub,2013-06-24 04:45:00,
2013-06-23 23:50:00,69.8,68.4,29.97,NW,315,6.0,8.0,95,0.00,,,0.21,meteohub,2013-06-24 04:50:00,
2013-06-23 23:55:00,69.8,68.4,29.98,SW,225,11.0,11.0,95,0.00,,,0.21,meteohub,2013-06-24 04:55:00,